TAIP55 YMLT-YMHB

Flight info

Callsign TAIP55
Flight time 0h 37m
Altitude 2500
Route YMLT-VFR-YMHB
Aircraft EC45/L-G/C

Departure

Time 2026-04-20 17:18
Airport Launceston Airport (YMLT)

Arrival

Time 2026-04-20 17:55
Airport Hobart International Airport (YMHB)
Time Latitude Longitude Altitude Speed Heading
2026-04-20 17:15 -41.54442 147.20768 558 ft 0 kts 239°
2026-04-20 17:17 -41.54427 147.20771 583 ft 6 kts 210°
2026-04-20 17:17 -41.54427 147.20780 598 ft 18 kts 170°
2026-04-20 17:18 -41.54616 147.20710 751 ft 45 kts 171°
2026-04-20 17:18 -41.55070 147.20689 889 ft 87 kts 172°
2026-04-20 17:18 -41.55711 147.20674 1034 ft 89 kts 169°
2026-04-20 17:18 -41.56302 147.20917 1202 ft 91 kts 157°
2026-04-20 17:19 -41.56887 147.21197 1375 ft 90 kts 161°
2026-04-20 17:19 -41.57483 147.21457 1551 ft 90 kts 164°
2026-04-20 17:19 -41.58083 147.21696 1727 ft 90 kts 166°
2026-04-20 17:19 -41.58686 147.21917 1902 ft 90 kts 168°
2026-04-20 17:20 -41.59291 147.22121 2076 ft 90 kts 169°
2026-04-20 17:20 -41.59902 147.22314 2252 ft 90 kts 170°
2026-04-20 17:20 -41.60521 147.22501 2313 ft 96 kts 170°
2026-04-20 17:20 -41.61266 147.22707 2302 ft 121 kts 169°
2026-04-20 17:21 -41.62138 147.22937 2303 ft 132 kts 169°
2026-04-20 17:21 -41.63040 147.23174 2302 ft 132 kts 170°
2026-04-20 17:21 -41.63942 147.23404 2306 ft 132 kts 171°
2026-04-20 17:21 -41.64847 147.23627 2308 ft 132 kts 171°
2026-04-20 17:22 -41.65753 147.23847 2300 ft 132 kts 171°
2026-04-20 17:22 -41.66655 147.24062 2298 ft 132 kts 172°
2026-04-20 17:22 -41.67559 147.24273 2298 ft 132 kts 172°
2026-04-20 17:22 -41.68465 147.24482 2295 ft 133 kts 172°
2026-04-20 17:23 -41.69387 147.24688 2302 ft 136 kts 172°
2026-04-20 17:23 -41.70329 147.24901 2299 ft 137 kts 172°
2026-04-20 17:23 -41.71268 147.25116 2302 ft 136 kts 172°
2026-04-20 17:23 -41.72205 147.25330 2297 ft 137 kts 172°
2026-04-20 17:24 -41.73146 147.25544 2299 ft 137 kts 172°
2026-04-20 17:24 -41.74087 147.25759 2298 ft 137 kts 172°
2026-04-20 17:24 -41.75027 147.25973 2306 ft 137 kts 172°
2026-04-20 17:24 -41.75963 147.26184 2298 ft 137 kts 172°
2026-04-20 17:25 -41.76587 147.26325 2299 ft 137 kts 172°
2026-04-20 17:25 -41.77831 147.26607 2302 ft 137 kts 172°
2026-04-20 17:25 -41.78768 147.26819 2309 ft 136 kts 172°
2026-04-20 17:25 -41.79706 147.27032 2297 ft 137 kts 172°
2026-04-20 17:26 -41.80644 147.27244 2301 ft 137 kts 172°
2026-04-20 17:26 -41.81279 147.27388 2299 ft 137 kts 172°
2026-04-20 17:26 -41.82206 147.27598 2298 ft 137 kts 172°
2026-04-20 17:26 -41.83144 147.27811 2303 ft 136 kts 172°
2026-04-20 17:27 -41.84082 147.28024 2302 ft 136 kts 172°
2026-04-20 17:27 -41.85002 147.28322 2299 ft 136 kts 163°
2026-04-20 17:27 -41.85901 147.28729 2303 ft 137 kts 163°
2026-04-20 17:27 -41.86817 147.29107 2298 ft 138 kts 165°
2026-04-20 17:28 -41.87735 147.29453 2302 ft 137 kts 166°
2026-04-20 17:28 -41.88661 147.29768 2301 ft 137 kts 168°
2026-04-20 17:28 -41.89592 147.30049 2298 ft 137 kts 170°
2026-04-20 17:28 -41.90524 147.30343 2298 ft 138 kts 166°
2026-04-20 17:29 -41.91426 147.30777 2298 ft 138 kts 160°
2026-04-20 17:29 -41.92316 147.31247 2299 ft 137 kts 160°
2026-04-20 17:29 -41.93202 147.31684 2304 ft 138 kts 165°
2026-04-20 17:29 -41.94153 147.31791 2298 ft 137 kts 185°
2026-04-20 17:30 -41.95097 147.31664 2302 ft 136 kts 189°
2026-04-20 17:30 -41.96022 147.31440 2297 ft 135 kts 194°
2026-04-20 17:30 -41.96945 147.31175 2297 ft 136 kts 188°
2026-04-20 17:30 -41.97893 147.31234 2300 ft 137 kts 175°
2026-04-20 17:31 -41.98833 147.31411 2298 ft 137 kts 173°
2026-04-20 17:31 -41.99762 147.31610 2306 ft 137 kts 173°
2026-04-20 17:31 -42.00703 147.31816 2297 ft 137 kts 172°
2026-04-20 17:31 -42.01647 147.32025 2302 ft 137 kts 172°
2026-04-20 17:32 -42.02587 147.32237 2298 ft 137 kts 172°
2026-04-20 17:32 -42.03526 147.32450 2298 ft 137 kts 172°
2026-04-20 17:32 -42.04464 147.32663 2297 ft 137 kts 172°
2026-04-20 17:32 -42.05405 147.32876 2298 ft 137 kts 172°
2026-04-20 17:33 -42.06346 147.33091 2299 ft 137 kts 172°
2026-04-20 17:33 -42.07285 147.33306 2299 ft 137 kts 172°
2026-04-20 17:33 -42.08222 147.33520 2298 ft 137 kts 172°
2026-04-20 17:33 -42.09147 147.33732 2309 ft 137 kts 172°
2026-04-20 17:34 -42.10086 147.33947 2300 ft 137 kts 172°
2026-04-20 17:34 -42.11026 147.34161 2299 ft 137 kts 172°
2026-04-20 17:34 -42.11964 147.34376 2297 ft 137 kts 172°
2026-04-20 17:34 -42.12903 147.34590 2297 ft 137 kts 172°
2026-04-20 17:35 -42.13844 147.34804 2307 ft 137 kts 172°
2026-04-20 17:35 -42.14785 147.35020 2298 ft 137 kts 172°
2026-04-20 17:35 -42.15723 147.35235 2298 ft 136 kts 172°
2026-04-20 17:35 -42.16661 147.35451 2302 ft 137 kts 172°
2026-04-20 17:36 -42.17589 147.35663 2300 ft 137 kts 172°
2026-04-20 17:36 -42.18533 147.35879 2304 ft 137 kts 172°
2026-04-20 17:36 -42.19476 147.36095 2297 ft 137 kts 172°
2026-04-20 17:36 -42.20416 147.36311 2298 ft 137 kts 172°
2026-04-20 17:37 -42.21355 147.36526 2298 ft 137 kts 172°
2026-04-20 17:37 -42.22299 147.36742 2302 ft 137 kts 172°
2026-04-20 17:37 -42.23223 147.36950 2427 ft 134 kts 172°
2026-04-20 17:37 -42.24140 147.37159 2510 ft 133 kts 172°
2026-04-20 17:38 -42.25067 147.37371 2500 ft 136 kts 172°
2026-04-20 17:38 -42.26009 147.37588 2495 ft 138 kts 172°
2026-04-20 17:38 -42.26957 147.37808 2495 ft 137 kts 172°
2026-04-20 17:38 -42.27899 147.38028 2491 ft 137 kts 172°
2026-04-20 17:39 -42.28840 147.38245 2491 ft 137 kts 172°
2026-04-20 17:39 -42.29773 147.38461 2491 ft 138 kts 172°
2026-04-20 17:39 -42.30715 147.38680 2491 ft 137 kts 172°
2026-04-20 17:39 -42.31657 147.38897 2489 ft 137 kts 172°
2026-04-20 17:40 -42.32603 147.39113 2490 ft 138 kts 172°
2026-04-20 17:40 -42.33549 147.39332 2491 ft 137 kts 172°
2026-04-20 17:40 -42.34490 147.39549 2490 ft 137 kts 172°
2026-04-20 17:40 -42.35434 147.39766 2489 ft 137 kts 172°
2026-04-20 17:41 -42.36379 147.39982 2490 ft 138 kts 172°
2026-04-20 17:41 -42.37314 147.40197 2490 ft 138 kts 172°
2026-04-20 17:41 -42.38259 147.40416 2490 ft 138 kts 172°
2026-04-20 17:41 -42.39204 147.40634 2491 ft 137 kts 172°
2026-04-20 17:42 -42.40145 147.40853 2490 ft 137 kts 172°
2026-04-20 17:42 -42.41085 147.41070 2490 ft 137 kts 172°
2026-04-20 17:42 -42.42032 147.41288 2490 ft 138 kts 172°
2026-04-20 17:42 -42.42981 147.41507 2490 ft 138 kts 172°
2026-04-20 17:43 -42.43921 147.41725 2491 ft 137 kts 172°
2026-04-20 17:43 -42.44863 147.41943 2490 ft 137 kts 172°
2026-04-20 17:43 -42.45796 147.42160 2491 ft 138 kts 172°
2026-04-20 17:43 -42.46738 147.42380 2491 ft 137 kts 172°
2026-04-20 17:44 -42.47678 147.42598 2488 ft 137 kts 172°
2026-04-20 17:44 -42.48619 147.42813 2488 ft 137 kts 172°
2026-04-20 17:44 -42.49565 147.43031 2492 ft 138 kts 172°
2026-04-20 17:44 -42.50504 147.43251 2490 ft 137 kts 172°
2026-04-20 17:45 -42.51445 147.43469 2490 ft 137 kts 172°
2026-04-20 17:45 -42.52386 147.43687 2489 ft 137 kts 172°
2026-04-20 17:45 -42.53313 147.43902 2490 ft 137 kts 172°
2026-04-20 17:45 -42.54255 147.44120 2490 ft 137 kts 172°
2026-04-20 17:46 -42.55195 147.44339 2490 ft 137 kts 172°
2026-04-20 17:46 -42.56137 147.44558 2490 ft 137 kts 172°
2026-04-20 17:46 -42.57079 147.44775 2489 ft 137 kts 172°
2026-04-20 17:46 -42.58021 147.44993 2491 ft 137 kts 172°
2026-04-20 17:47 -42.58966 147.45214 2491 ft 136 kts 172°
2026-04-20 17:47 -42.59892 147.45430 2489 ft 137 kts 172°
2026-04-20 17:47 -42.60833 147.45647 2490 ft 137 kts 172°
2026-04-20 17:47 -42.61774 147.45866 2490 ft 137 kts 172°
2026-04-20 17:48 -42.62716 147.46084 2490 ft 137 kts 172°
2026-04-20 17:48 -42.63655 147.46303 2490 ft 137 kts 172°
2026-04-20 17:48 -42.64591 147.46521 2490 ft 137 kts 172°
2026-04-20 17:48 -42.65531 147.46740 2490 ft 137 kts 172°
2026-04-20 17:49 -42.66459 147.46957 2491 ft 137 kts 172°
2026-04-20 17:49 -42.67395 147.47176 2489 ft 137 kts 172°
2026-04-20 17:49 -42.68334 147.47393 2490 ft 137 kts 172°
2026-04-20 17:49 -42.69274 147.47612 2497 ft 137 kts 172°
2026-04-20 17:50 -42.70197 147.47687 2616 ft 129 kts 186°
2026-04-20 17:50 -42.71065 147.47471 2706 ft 123 kts 194°
2026-04-20 17:50 -42.71870 147.47215 2594 ft 117 kts 196°
2026-04-20 17:50 -42.72638 147.46944 2397 ft 111 kts 197°
2026-04-20 17:51 -42.73364 147.46664 2225 ft 106 kts 199°
2026-04-20 17:51 -42.74065 147.46370 2035 ft 104 kts 200°
2026-04-20 17:51 -42.74742 147.46068 1801 ft 102 kts 199°
2026-04-20 17:51 -42.75431 147.45880 1590 ft 101 kts 188°
2026-04-20 17:52 -42.76133 147.45823 1444 ft 100 kts 184°
2026-04-20 17:52 -42.76823 147.45827 1299 ft 101 kts 180°
2026-04-20 17:52 -42.77522 147.45896 1160 ft 101 kts 175°
2026-04-20 17:52 -42.78207 147.46097 1017 ft 101 kts 168°
2026-04-20 17:53 -42.78860 147.46300 893 ft 91 kts 171°
2026-04-20 17:53 -42.79443 147.46512 790 ft 84 kts 163°
2026-04-20 17:53 -42.79966 147.46803 696 ft 79 kts 159°
2026-04-20 17:53 -42.80457 147.47104 616 ft 76 kts 157°
2026-04-20 17:54 -42.80896 147.47470 551 ft 74 kts 145°
2026-04-20 17:54 -42.81278 147.47937 516 ft 73 kts 138°
2026-04-20 17:54 -42.81634 147.48436 480 ft 73 kts 132°
2026-04-20 17:54 -42.81974 147.48944 442 ft 72 kts 138°
2026-04-20 17:55 -42.82330 147.49419 307 ft 71 kts 137°
2026-04-20 17:55 -42.82679 147.49892 152 ft 70 kts 137°
2026-04-20 17:55 -42.82992 147.50325 76 ft 54 kts 138°
2026-04-20 17:55 -42.83190 147.50535 68 ft 23 kts 168°
2026-04-20 17:56 -42.83320 147.50546 61 ft 18 kts 174°
2026-04-20 17:56 -42.83449 147.50502 57 ft 20 kts 174°
2026-04-20 17:56 -42.83526 147.50464 21 ft 4 kts 176°
2026-04-20 17:56 -42.83541 147.50456 21 ft 9 kts 174°
2026-04-20 17:57 -42.83568 147.50453 16 ft 0 kts 171°